Weather History for KIDA - July, 2014

Change the Weather History Date:

Tuesday, July 22, 2014

  Actual Average Record
Temperature  
Mean Temperature 75 °F 69 °F  
Max Temperature 92 °F 88 °F 99 °F (2000)
Min Temperature 57 °F 51 °F 38 °F (1954)
Degree Days  
Heating Degree Days 0 0  
Month to date heating degree days 2 25  
Since 1 June heating degree days 130 178  
Since 1 July heating degree days 2 25  
Cooling Degree Days 10 5  
Month to date cooling degree days 156 83  
Year to date cooling degree days 166 115  
Since 1 June cooling degree days 165 113  
Growing Degree Days 26 (Base 50)    
Moisture  
Dew Point 49 °F    
Average Humidity 46    
Maximum Humidity 72    
Minimum Humidity 19    
Precipitation  
Precipitation 0.00 in 0.02 in 0.49 in (1979)
Month to date precipitation T 0.36  
Year to date precipitation 3.84 6.30  
Sea Level Pressure  
Sea Level Pressure 30.07 in    
Wind  
Wind Speed 6 mph (West)    
Max Wind Speed 17 mph    
Max Gust Speed 20 mph    
Visibility 10 miles    
Events      
T = Trace of Precipitation, MM = Missing Value Source: NWS Daily Summary

Daily Weather History Graph

Daily Weather History Graph

Search for Another Location

Airport or City:

Trip Planner

Search our weather history database for the weather conditions in past years. The results will help you decide how hot, cold, wet, or windy it might be!

Date:

Astronomy

Jul. 22, 2014 Rise Set
Actual Time 6:07 AM MDT 9:01 PM MDT
Civil Twilight 5:33 AM MDT 9:34 PM MDT
Nautical Twilight 4:50 AM MDT 10:17 PM MDT
Astronomical Twilight 4:00 AM MDT 11:07 PM MDT
Moon 2:44 AM MDT (7/22) 5:41 PM MDT (7/22)
Length of Visible Light 16h 01m
Length of Day
14h 53m
Waning Crescent, 16% of the Moon is Illuminated
Jul 22
Waning Crescent
Jul 26
New
Aug 3
First Quarter
Aug 10
Full
Aug 17
Last Quarter

Hourly Weather History & Observations

Time (MDT) Temp. Heat Index Dew Point Humidity Pressure Visibility Wind Dir Wind Speed Gust Speed Precip Events Conditions
12:53 AM 70.0 °F - 46.9 °F 44% 30.04 in 10.0 mi South 10.4 mph - N/A   Partly Cloudy
1:53 AM 68.0 °F - 48.0 °F 49% 30.02 in 10.0 mi South 10.4 mph - N/A   Clear
2:53 AM 63.0 °F - 48.9 °F 60% 30.05 in 10.0 mi SSW 8.1 mph - N/A   Clear
3:53 AM 64.0 °F - 48.9 °F 58% 30.06 in 10.0 mi South 3.5 mph - N/A   Clear
4:53 AM 64.0 °F - 51.1 °F 63% 30.09 in 10.0 mi SSW 9.2 mph - N/A   Clear
5:53 AM 61.0 °F - 51.1 °F 70% 30.10 in 10.0 mi SSW 9.2 mph - N/A   Clear
6:53 AM 60.1 °F - 50.0 °F 69% 30.13 in 10.0 mi SW 6.9 mph - N/A   Clear
8:53 AM 66.9 °F - 52.0 °F 59% 30.16 in 10.0 mi NNE 4.6 mph - N/A   Scattered Clouds
9:53 AM 71.1 °F - 52.0 °F 51% 30.17 in 10.0 mi Calm Calm - N/A   Partly Cloudy
10:53 AM 75.0 °F - 54.0 °F 48% 30.15 in 10.0 mi NW 4.6 mph - N/A   Partly Cloudy
11:53 AM 79.0 °F - 54.0 °F 42% 30.14 in 10.0 mi West 5.8 mph - N/A   Scattered Clouds
12:53 PM 80.1 °F 80.0 °F 54.0 °F 40% 30.13 in 10.0 mi NNW 4.6 mph - N/A   Scattered Clouds
1:53 PM 84.9 °F - 51.1 °F 31% 30.11 in 10.0 mi Variable 3.5 mph - N/A   Scattered Clouds
2:53 PM 88.0 °F - 48.9 °F 26% 30.09 in 10.0 mi Variable 5.8 mph - N/A   Scattered Clouds
3:53 PM 90.0 °F - 45.0 °F 21% 30.07 in 10.0 mi WSW 8.1 mph - N/A   Scattered Clouds
4:53 PM 89.1 °F - 46.9 °F 23% 30.04 in 10.0 mi WNW 8.1 mph - N/A   Scattered Clouds
5:53 PM 90.0 °F - 45.0 °F 21% 30.04 in 10.0 mi NW 3.5 mph - N/A   Scattered Clouds
6:53 PM 91.0 °F - 46.0 °F 21% 30.02 in 10.0 mi NNE 8.1 mph - N/A   Scattered Clouds
7:53 PM 89.1 °F - 43.0 °F 20% 30.01 in 10.0 mi ENE 6.9 mph - N/A   Clear
8:53 PM 82.9 °F - 46.9 °F 28% 30.01 in 10.0 mi ENE 9.2 mph - N/A   Clear
9:53 PM 78.1 °F - 44.1 °F 30% 30.01 in 10.0 mi East 6.9 mph - N/A   Clear
10:53 PM 70.0 °F - 48.9 °F 47% 30.02 in 10.0 mi ENE 3.5 mph - N/A   Clear
11:53 PM 61.0 °F - 52.0 °F 72% 30.01 in 10.0 mi North 3.5 mph - N/A   Clear